sat.trackr.live / text

‹ back to catalog

STARLINK-34319

NORAD 64268 · 2025-120N

PAYLOAD ACTIVE UNKNOWN

§ Identity

Operator
Country
US
Launch date
2025-06-04
Launch site
AFWTR
Launch vehicle
Mass (kg)
RCS (m²)

Purposes: comms

External: N2YO · Heavens-Above · Gunter

§ Orbital elements

Epoch: 2026-09-20T08:54:30.612960Z

Period
93.85 min
Inclination
53.1600°
Eccentricity
0.0001368
Mean motion
15.34400289 rev/d
Perigee alt
461.8 km
Apogee alt
463.6 km
Semi-major
6,840.8 km
B*
3.4252e-4
RAAN
286.6727°
Arg perigee
92.7513°
Mean anomaly
267.3647°
Rev number
7,379

§ Raw data

STARLINK-343191 64268U 25120N   26263.37118765  .00011214  00000+0  34252-3 0  99902 64268  53.1600 286.6727 0001368  92.7513 267.3647 15.34400289 73793

JSON: /api/v1/satellites/64268 · /tle

For live sub-satellite position, see the globe view (requires WebGL).

§ Visibility from observer

Set your observer location to see the next 7 days of passes ≥ 10°. The values pass through the URL so the page stays shareable.

No JS? Fill the form by hand. The geolocation button needs JavaScript.